Orbital Elements at Epoch 2459000.5 (2020-May-31.0) TDB
Reference: JPL 17 (heliocentric ecliptic J2000)
Element | Value | Uncertainty (1-sigma) | Units |
e | .08524882405254013 | 3.9331e-08 | |
a | 2.699274668468831 | 1.6226e-08 | au |
q | 2.469164677187053 | 1.0185e-07 | au |
i | 10.57947750568774 | 3.9379e-06 | deg |
node | 107.7998837466815 | 2.4594e-05 | deg |
peri | 56.3987971978159 | 4.4582e-05 | deg |
M | 64.45073989798352 | 3.4325e-05 | deg |
tp | 2458710.502367685753 (2019-Aug-15.00236769) | 0.00015383 | TDB |
period | 1619.828535690641 4.43 | 1.4606e-05 3.999e-08 | d yr |
n | .222245745193338 | 2.0039e-09 | deg/d |
Q | 2.929384659750609 | 1.7609e-08 | au |
|
| | Orbit Determination Parameters
Additional Information
|